Voltar ao catálogo

THORAD AGENA D DEB *

AtivoPO
NORAD 5824·DEBRIS·🇺🇸 United States

Lançado Apr 8, 1970 de Vandenberg Space Force Base

Loading…

Próximas Passagens (próximas 24 horas)

TLE

AtualizadoSource: Space-Track

Época: Sep 14, 2026, 18:49 UTC

1 05824U 70025MJ  26257.78429475  .00000368  00000-0  30250-3 0  9991
2 05824  97.8771 297.7997 0598165  54.4495 311.0907 13.31238457688881

Acompanhe THORAD AGENA D DEB * em tempo real com AllMySat

Download on the App Store